Temp
-2 -2 -2 -2 -2 -1 -0 0 4 1 3 4 4 3 1 1 2 2 2 3 3 2 2 1 2 3 3 1 1 1 2 -0 3 8 11 11 11 10 11 10 11 12 12 12
-2 -2 -2 -2 -2 -2 -2 -0 1 1 1 2 2 2 1 1 1 1 1 1 2 2 1 0 2 2 3 2 2 1 2 0 0 5 8 9 7 9 10 11 12 10 11 11
-3 -2 -2 -2 -3 -2 -2 -1 1 1 1 0 -0 -0 1 1 1 1 1 1 2 1 1 1 -0 1 2 2 2 2 1 0 -0 -0 3 3 1 2 2 1 3 8 10 12
-3 -3 -3 -3 -3 -3 -3 -1 -0 -1 0 1 1 1 0 0 0 1 1 1 1 1 -1 -0 0 1 2 2 2 2 2 -1 1 1 1 2 2 2 2 1 1 1 6 10
-3 -3 -3 -3 -3 -3 -3 -2 -2 -3 -2 -1 -0 0 -0 -0 0 0 -0 -0 0 -0 -1 -0 -1 -0 0 0 1 1 1 -1 0 -1 1 1 1 2 2 3 3 2 3 5
-4 -4 -3 -3 -4 -3 -3 -3 -4 -4 -2 -0 -1 -0 -0 -0 -0 -0 -0 -0 -1 -1 -0 -0 -0 -0 -0 0 0 0 0 -0 -1 -2 0 1 0 2 3 4 4 4 3 5
-3 -3 -4 -3 -4 -4 -4 -4 -4 -4 -1 0 -0 0 -0 -1 -1 -1 -1 -1 -1 -2 -2 -2 -1 -0 -0 1 1 1 -0 -0 -0 -2 -1 -2 2 4 4 4 5 6 6 7
-4 -4 -4 -3 -3 -3 -4 -4 -4 -4 -2 -1 -1 -2 -1 -1 -1 -1 -1 -1 -1 -2 -2 -2 -2 -0 1 2 2 2 2 -1 -2 -2 -1 1 2 3 3 3 4 6 7 8
-4 -4 -4 -4 -4 -4 -4 -4 -4 -4 -4 -1 -2 -2 -2 -2 -2 -1 -1 -1 -1 -2 -2 -2 -3 -2 -0 -1 -0 2 -1 -2 -2 -1 -2 -1 3 1 -1 4 3 6 8 8
-4 -4 -4 -4 -4 -4 -4 -4 -4 -4 -4 -2 -3 -3 -3 -3 -3 -3 -1 -3 -2 -2 -2 -2 -2 -1 -0 -2 -2 -1 -1 -1 -2 -1 -1 0 -1 -3 -2 -1 1 -0 5 8
-5 -5 -4 -4 -4 -4 -4 -4 -4 -4 -4 -4 -4 -5 -5 -4 -3 -3 -2 -2 -3 -2 -3 -2 -1 -2 -1 -2 -4 -5 -5 -6 -3 -3 -3 -2 -3 -5 -5 -1 -4 -3 -2 0
-5 -4 -4 -4 -4 -4 -4 -4 -4 -4 -5 -4 -5 -5 -6 -6 -6 -6 -4 -3 -2 -2 -2 -3 -2 -2 -2 -3 -5 -5 -6 -7 -7 -7 -5 -5 -7 -7 -7 -7 -6 -4 -3 -0
-4 -4 -4 -4 -4 -4 -4 -4 -4 -5 -5 -4 -4 -5 -6 -6 -7 -7 -6 -4 -3 -4 -3 -3 -3 -4 -5 -6 -7 -6 -7 -7 -8 -8 -5 -7 -8 -7 -6 -2 -4 -3 0 4
-4 -4 -4 -4 -2 -3 -4 -5 -5 -5 -5 -4 -4 -6 -6 -7 -7 -7 -7 -7 -5 -5 -4 -5 -5 -5 -5 -6 -7 -7 -9 -8 -9 -8 -7 -8 -7 -8 -6 -2 -1 -1 -0 0
-5 -3 -2 -2 -2 -3 -4 -5 -5 -5 -5 -4 -3 -5 -6 -7 -7 -8 -6 -6 -6 -5 -6 -6 -6 -7 -6 -6 -6 -8 -9 -9 -9 -9 -9 -9 -9 -9 -7 -5 -4 -3 -3 -4
-1 -1 -1 -2 -3 -3 -4 -4 -5 -5 -5 -5 -3 -5 -6 -7 -7 -7 -7 -7 -7 -6 -6 -7 -7 -7 -7 -8 -8 -9 -10 -10 -10 -10 -10 -9 -10 -9 -9 -8 -7 -7 -6 -6
-1 -1 -1 -2 -3 -3 -4 -4 -4 -5 -5 -5 -4 -4 -5 -6 -6 -7 -7 -7 -7 -7 -7 -7 -7 -8 -7 -8 -9 -10 -10 -10 -10 -10 -10 -10 -10 -10 -10 -9 -9 -8 -8 -8
-1 -0 -1 -2 -3 -3 -4 -4 -4 -3 -5 -5 -5 -5 -5 -7 -6 -6 -5 -6 -7 -7 -7 -7 -7 -7 -8 -9 -10 -10 -11 -10 -10 -10 -11 -10 -10 -10 -10 -9 -9 -9 -9 -9
-1 -1 -2 -2 -3 -4 -4 -4 -4 -4 -4 -5 -6 -7 -6 -7 -6 -7 -5 -5 -6 -7 -7 -7 -7 -8 -9 -10 -10 -11 -11 -11 -11 -10 -10 -10 -11 -11 -10 -10 -10 -10 -10 -10
-1 -1 -2 -3 -3 -3 -3 -4 -5 -5 -6 -7 -7 -8 -7 -8 -6 -5 -5 -4 -5 -7 -6 -6 -7 -9 -10 -11 -11 -11 -11 -12 -11 -11 -11 -11 -11 -11 -11 -11 -11 -11 -11 -10
-2 -2 -3 -3 -3 -3 -4 -6 -6 -6 -6 -7 -8 -8 -8 -8 -7 -6 -6 -5 -5 -7 -6 -7 -8 -9 -10 -11 -11 -12 -12 -12 -12 -12 -11 -11 -11 -11 -11 -11 -11 -11 -10 -10
-3 -4 -4 -4 -4 -4 -5 -7 -6 -6 -8 -8 -8 -9 -9 -9 -8 -6 -6 -5 -5 -7 -6 -7 -8 -9 -11 -11 -11 -12 -12 -12 -12 -12 -12 -12 -12 -12 -12 -12 -11 -11 -10 -10
-3 -4 -4 -5 -6 -7 -7 -8 -7 -7 -8 -8 -9 -9 -9 -8 -8 -6 -6 -6 -7 -7 -7 -8 -9 -10 -11 -11 -12 -12 -12 -12 -12 -12 -12 -12 -12 -12 -12 -12 -12 -11 -11 -10
-4 -5 -7 -6 -7 -7 -7 -8 -8 -9 -10 -10 -10 -9 -9 -9 -7 -6 -7 -7 -6 -8 -8 -9 -9 -11 -11 -12 -12 -12 -12 -12 -12 -12 -12 -13 -13 -12 -12 -12 -13 -13 -13 -12
-6 -7 -8 -8 -9 -9 -10 -11 -11 -10 -11 -11 -10 -9 -9 -7 -7 -7 -7 -8 -8 -8 -9 -9 -10 -11 -12 -12 -13 -13 -12 -12 -12 -12 -13 -13 -14 -13 -13 -13 -14 -14 -14 -13
-7 -8 -8 -8 -8 -8 -9 -10 -10 -11 -12 -11 -11 -9 -8 -9 -8 -8 -9 -8 -9 -9 -10 -10 -11 -11 -12 -13 -13 -13 -14 -14 -14 -14 -14 -14 -15 -15 -14 -14 -14 -14 -14 -14
-8 -9 -10 -10 -10 -9 -10 -11 -11 -12 -10 -9 -9 -9 -10 -10 -9 -9 -9 -10 -10 -11 -11 -11 -12 -12 -13 -13 -14 -14 -14 -14 -14 -15 -14 -14 -15 -15 -15 -15 -15 -15 -14 -15
Height
1541 1536 1531 1526 1520 1514 1508 1503 1496 1493 1487 1488 1485 1482 1491 1490 1485 1485 1483 1480 1474 1475 1476 1475 1471 1465 1469 1474 1474 1468 1467 1465 1441 1416 1409 1409 1408 1409 1407 1406 1400 1393 1395 1387
1540 1535 1530 1525 1520 1515 1510 1508 1501 1498 1492 1488 1487 1489 1490 1490 1488 1486 1484 1482 1478 1478 1476 1478 1468 1469 1471 1471 1473 1472 1469 1464 1456 1420 1413 1410 1416 1413 1407 1400 1394 1393 1391 1382
1539 1534 1529 1525 1520 1516 1513 1509 1503 1500 1498 1498 1498 1494 1488 1488 1487 1487 1485 1483 1480 1477 1474 1475 1474 1472 1470 1471 1471 1470 1470 1467 1466 1458 1435 1438 1445 1439 1439 1441 1429 1396 1384 1377
1540 1535 1530 1525 1519 1516 1514 1510 1506 1508 1501 1496 1495 1494 1492 1488 1485 1484 1483 1480 1477 1476 1479 1474 1470 1467 1465 1465 1465 1464 1463 1464 1457 1451 1449 1444 1436 1436 1429 1438 1436 1434 1398 1382
1538 1532 1528 1525 1519 1515 1513 1511 1509 1507 1504 1499 1495 1491 1489 1488 1484 1484 1481 1479 1477 1479 1475 1472 1470 1468 1466 1461 1461 1460 1459 1457 1454 1450 1444 1441 1431 1426 1425 1417 1417 1423 1414 1402
1536 1531 1527 1522 1518 1514 1510 1506 1505 1505 1499 1494 1493 1489 1486 1485 1483 1482 1480 1478 1477 1474 1472 1471 1469 1467 1464 1458 1457 1454 1453 1452 1449 1442 1433 1434 1427 1417 1407 1403 1402 1409 1403 1396
1533 1529 1524 1520 1517 1514 1510 1506 1502 1499 1491 1489 1487 1485 1483 1481 1479 1478 1473 1473 1472 1471 1470 1468 1464 1459 1454 1449 1444 1445 1443 1442 1439 1434 1430 1430 1404 1402 1398 1392 1381 1383 1384 1383
1531 1526 1522 1518 1514 1511 1507 1504 1501 1499 1493 1488 1484 1484 1480 1476 1473 1471 1468 1465 1466 1467 1466 1465 1458 1445 1437 1433 1434 1432 1431 1436 1433 1429 1419 1400 1390 1392 1390 1387 1377 1374 1372 1373
1528 1523 1519 1516 1512 1508 1504 1501 1497 1495 1494 1482 1485 1481 1479 1476 1471 1465 1462 1460 1460 1463 1463 1459 1455 1446 1438 1437 1433 1429 1434 1434 1431 1422 1416 1402 1380 1388 1387 1373 1362 1369 1363 1364
1526 1521 1517 1513 1509 1505 1501 1497 1494 1493 1491 1485 1484 1481 1478 1475 1472 1467 1461 1461 1460 1461 1457 1453 1448 1442 1439 1442 1440 1432 1429 1425 1423 1413 1407 1391 1394 1397 1385 1376 1370 1372 1359 1354
1523 1519 1515 1510 1506 1502 1498 1493 1491 1491 1488 1483 1482 1480 1477 1474 1472 1468 1464 1461 1459 1459 1457 1451 1446 1446 1443 1441 1448 1453 1449 1450 1429 1423 1416 1395 1392 1390 1397 1376 1366 1372 1369 1361
1521 1516 1511 1507 1503 1499 1495 1492 1489 1488 1487 1484 1482 1481 1480 1479 1476 1472 1466 1462 1460 1457 1456 1455 1453 1447 1443 1445 1451 1457 1458 1466 1459 1454 1428 1419 1413 1402 1385 1376 1365 1358 1362 1354
1517 1513 1508 1503 1499 1495 1493 1491 1488 1486 1485 1482 1482 1483 1481 1477 1472 1469 1466 1458 1457 1456 1457 1457 1454 1454 1462 1466 1467 1466 1468 1464 1458 1452 1429 1422 1407 1386 1354 1341 1345 1347 1351 1347
1514 1509 1503 1499 1496 1493 1491 1490 1490 1488 1486 1484 1483 1482 1479 1477 1470 1462 1455 1452 1454 1456 1458 1459 1463 1465 1474 1475 1476 1476 1477 1468 1459 1446 1433 1417 1398 1378 1358 1347 1345 1346 1348 1351
1511 1505 1501 1498 1496 1493 1491 1491 1491 1490 1490 1485 1482 1482 1482 1478 1470 1459 1449 1448 1453 1456 1463 1468 1474 1478 1478 1479 1478 1478 1479 1472 1463 1451 1445 1435 1419 1399 1376 1363 1359 1353 1351 1355
1509 1505 1503 1500 1496 1494 1492 1492 1491 1489 1487 1486 1482 1487 1487 1483 1477 1467 1461 1460 1460 1463 1469 1478 1484 1485 1485 1486 1485 1489 1481 1475 1469 1462 1447 1440 1424 1408 1393 1385 1380 1371 1369 1369
1508 1505 1503 1501 1498 1496 1496 1497 1494 1488 1487 1487 1486 1489 1490 1486 1485 1480 1475 1473 1473 1474 1478 1486 1489 1489 1489 1494 1495 1492 1484 1476 1469 1460 1449 1436 1426 1424 1411 1402 1396 1389 1383 1380
1506 1504 1502 1501 1500 1498 1497 1496 1494 1490 1489 1490 1495 1495 1492 1491 1490 1488 1487 1484 1484 1487 1491 1494 1494 1494 1496 1500 1503 1497 1488 1479 1470 1463 1456 1452 1444 1430 1421 1414 1408 1399 1400 1401
1504 1502 1501 1501 1500 1499 1499 1497 1496 1494 1496 1497 1501 1501 1495 1495 1493 1491 1490 1490 1492 1498 1500 1500 1502 1504 1507 1512 1507 1500 1494 1487 1481 1472 1464 1455 1447 1444 1438 1433 1428 1424 1423 1420
1503 1502 1502 1503 1503 1500 1500 1498 1499 1498 1500 1504 1507 1507 1502 1501 1495 1491 1491 1492 1495 1500 1505 1505 1507 1512 1516 1513 1510 1505 1498 1492 1486 1478 1469 1464 1460 1458 1454 1448 1445 1441 1439 1435
1503 1503 1505 1505 1503 1502 1501 1504 1506 1509 1509 1512 1512 1510 1507 1503 1499 1495 1495 1496 1498 1503 1507 1507 1511 1516 1518 1514 1509 1505 1499 1494 1489 1485 1480 1475 1471 1464 1459 1456 1453 1450 1447 1443
1507 1507 1506 1506 1506 1506 1509 1516 1517 1517 1519 1518 1515 1513 1510 1505 1502 1498 1499 1499 1502 1508 1509 1510 1515 1521 1519 1514 1510 1506 1501 1496 1491 1487 1482 1478 1474 1470 1467 1463 1459 1456 1453 1449
1508 1509 1509 1514 1518 1520 1526 1529 1524 1524 1524 1522 1520 1516 1512 1508 1506 1503 1502 1503 1509 1510 1512 1516 1521 1523 1519 1515 1511 1507 1503 1498 1494 1489 1485 1481 1477 1473 1469 1465 1462 1459 1455 1453
1512 1515 1522 1525 1531 1535 1534 1535 1533 1531 1527 1524 1521 1517 1515 1512 1509 1507 1507 1512 1510 1513 1516 1519 1522 1522 1519 1515 1512 1507 1504 1500 1495 1490 1486 1483 1479 1475 1471 1468 1464 1461 1458 1456
1519 1525 1535 1538 1540 1539 1537 1535 1532 1530 1527 1524 1521 1518 1517 1514 1512 1513 1513 1514 1515 1517 1520 1523 1524 1522 1519 1516 1512 1508 1503 1499 1495 1491 1487 1483 1480 1476 1472 1469 1466 1463 1461 1458
1530 1537 1541 1541 1539 1538 1536 1534 1531 1529 1525 1523 1522 1519 1517 1520 1519 1520 1522 1520 1524 1526 1528 1527 1525 1522 1518 1515 1511 1507 1503 1499 1495 1491 1487 1484 1481 1477 1473 1470 1468 1464 1462 1459
1541 1545 1545 1544 1543 1541 1538 1534 1532 1528 1526 1524 1523 1523 1526 1526 1525 1527 1529 1529 1531 1531 1529 1527 1524 1521 1517 1514 1510 1505 1500 1496 1493 1489 1486 1482 1480 1477 1474 1471 1467 1464 1463 1459
Wind_Speed
23 25 25 26 29 33 29 14 5 20 11 4 3 3 6 8 6 6 6 7 9 5 6 8 13 9 8 13 14 9 6 6 8 20 16 12 18 19 21 11 17 11 12 15
25 27 25 26 26 28 25 15 8 13 16 4 6 7 6 3 7 8 6 6 4 11 13 9 8 12 12 22 10 5 8 3 7 10 15 16 9 16 20 19 17 22 15 10
25 26 26 24 22 24 19 10 4 10 6 4 5 7 6 9 5 7 5 9 13 12 11 12 11 17 17 18 15 18 14 12 16 14 21 21 18 15 19 14 6 17 20 24
25 26 27 25 22 21 12 4 3 2 6 8 11 6 10 12 12 10 14 10 12 13 11 16 17 18 17 19 22 18 12 15 18 20 21 25 27 27 28 21 18 9 18 24
24 25 25 24 26 23 7 5 4 3 13 10 11 11 9 15 15 14 15 16 16 15 18 17 18 19 19 20 17 18 19 17 20 24 25 25 29 28 28 29 27 25 28 26
28 25 26 23 21 22 10 8 7 7 7 10 8 11 14 16 18 18 20 19 17 18 18 22 23 24 27 24 22 21 20 17 19 24 28 25 24 25 29 28 25 24 25 26
26 27 25 24 21 17 17 19 12 7 8 9 11 16 20 18 19 20 27 25 18 16 21 23 24 25 28 29 24 24 20 19 16 18 22 22 24 25 28 29 29 24 23 26
28 27 26 24 22 18 18 17 11 5 7 19 16 16 20 26 25 20 22 25 20 18 15 9 9 12 15 13 8 12 12 11 6 6 13 20 27 21 23 24 28 28 26 22
28 27 25 24 20 21 22 19 15 10 7 7 26 19 21 14 13 15 19 8 7 8 4 5 5 9 11 6 7 5 7 11 9 13 17 23 23 20 38 24 23 25 24 25
26 24 21 23 22 21 23 20 13 11 10 9 15 15 11 11 9 7 15 4 4 8 4 6 8 8 8 4 9 10 10 9 10 12 15 14 14 28 30 10 8 29 27 24
25 21 23 23 23 23 21 20 10 8 7 19 10 14 18 16 13 7 16 8 4 3 4 3 3 4 4 6 11 7 6 7 7 8 13 9 40 34 10 20 53 39 34 30
26 24 26 25 22 21 19 11 13 14 7 11 9 9 14 16 15 14 9 10 10 3 2 2 3 6 5 9 4 12 4 6 7 7 9 34 41 39 55 53 50 46 31 37
27 26 24 22 20 16 13 12 9 9 5 7 3 4 12 19 20 14 8 11 6 3 4 3 2 4 7 7 5 9 14 12 6 15 6 22 48 46 52 9 27 28 23 8
26 26 23 19 14 14 12 6 6 11 5 3 3 7 27 21 21 17 15 22 14 5 4 5 5 4 11 7 4 9 12 14 14 14 12 39 33 55 47 20 13 18 23 26
27 24 17 13 14 12 11 4 4 14 8 5 5 6 23 25 26 27 14 3 4 5 6 5 4 4 5 5 5 6 20 9 9 5 27 20 28 45 48 40 32 29 36 39
23 18 12 13 12 13 7 2 5 16 10 3 3 7 16 18 31 33 34 35 32 20 9 8 7 13 6 5 5 21 33 32 30 18 31 28 33 48 50 44 43 43 42 39
19 14 8 11 11 11 7 4 12 14 6 3 2 3 11 18 18 34 33 32 28 17 12 11 10 12 4 5 7 28 34 30 35 38 31 34 45 35 48 48 45 47 50 51
16 11 7 5 10 10 8 10 11 16 5 6 3 3 4 15 7 5 15 24 27 26 14 13 12 8 7 5 21 27 32 29 37 40 39 33 37 48 50 51 49 53 49 46
13 8 6 5 6 6 8 7 9 14 12 4 6 6 4 11 4 4 2 4 5 6 12 13 10 6 7 11 22 27 31 28 31 33 36 40 41 39 42 43 42 40 38 38
10 5 4 4 10 8 6 5 4 6 8 7 7 11 3 9 7 3 1 4 3 2 5 4 4 6 16 22 21 23 25 26 27 26 32 35 35 32 31 33 31 31 28 30
11 5 4 7 7 6 5 6 7 8 4 8 9 11 8 7 4 4 6 2 2 2 4 2 3 4 16 25 24 25 25 25 24 22 21 23 23 26 28 28 27 28 27 27
8 5 5 8 8 7 6 4 4 5 4 12 11 16 9 6 5 4 6 2 2 3 2 2 2 4 18 24 25 24 23 25 25 24 23 23 22 22 21 21 23 23 22 23
6 5 4 7 8 10 6 8 3 6 11 9 16 14 8 5 5 2 3 3 3 1 2 2 3 9 19 22 22 23 24 24 25 25 24 22 22 21 21 20 19 19 19 20
5 6 6 5 4 5 3 6 7 10 10 16 14 7 4 4 4 4 3 2 1 2 2 2 5 12 18 19 19 22 25 26 27 26 25 23 22 22 20 20 19 18 17 17
6 7 5 5 3 2 8 9 8 8 11 10 6 4 3 4 3 3 2 2 3 4 3 3 11 15 18 16 18 22 27 27 26 24 24 23 21 21 20 19 17 16 16 16
6 8 3 8 5 9 11 10 11 10 10 5 2 3 2 5 3 3 5 2 3 3 5 10 12 14 16 18 20 20 21 21 23 22 21 19 18 19 18 18 16 17 16 16
5 4 6 4 4 7 11 10 11 13 7 4 3 4 4 3 2 2 4 3 3 8 10 11 13 16 16 19 20 21 23 22 20 20 19 18 16 16 15 16 16 16 15 15
Wind_Direction
357 353 352 350 352 357 6 353 320 340 1 28 359 13 343 333 318 325 316 302 289 312 311 304 289 278 322 357 349 346 21 309 277 257 250 238 248 226 230 233 231 234 264 263
346 344 343 345 347 357 358 341 314 343 6 17 353 1 315 306 323 339 332 305 320 318 301 301 291 303 300 313 311 329 349 321 314 264 244 250 264 274 264 268 249 246 234 244
346 344 345 344 347 351 355 331 327 352 358 50 336 341 326 320 299 297 297 294 296 289 290 304 290 287 295 298 292 297 289 268 256 272 294 310 296 297 307 307 293 263 245 258
340 338 341 344 341 343 351 343 22 323 316 329 321 281 296 302 308 317 305 295 293 307 301 295 290 293 299 296 292 284 265 264 268 271 277 282 286 283 284 275 277 281 286 271
337 341 337 332 335 341 321 310 329 267 287 296 299 294 265 293 293 305 296 289 287 299 293 288 297 300 295 297 299 282 273 275 278 275 275 277 279 277 276 273 267 268 273 278
341 340 336 338 337 335 326 278 302 272 269 294 286 289 300 298 296 299 289 285 294 280 280 293 297 294 283 282 283 278 275 273 271 270 268 272 269 269 270 266 264 261 266 269
335 337 334 339 335 332 322 320 312 249 270 311 302 301 302 297 292 293 293 292 287 282 296 292 286 273 266 264 264 263 267 267 266 262 274 267 260 256 260 268 269 255 245 251
337 335 333 338 337 333 334 321 319 302 297 303 305 325 311 307 304 301 301 292 279 281 279 277 268 272 269 276 310 282 275 261 256 261 257 277 270 267 269 267 254 251 249 245
337 340 338 338 342 341 330 330 305 287 294 308 321 310 310 308 306 308 321 334 261 248 265 256 264 294 318 308 309 274 246 236 250 277 279 278 286 349 341 295 251 264 235 236
342 340 343 335 340 333 325 324 314 306 288 305 322 309 308 293 294 290 313 351 245 220 254 268 280 303 351 302 303 309 310 316 289 296 291 284 34 352 320 264 281 326 280 255
339 344 339 336 332 335 335 327 326 302 291 307 354 353 340 338 335 313 317 307 194 229 249 288 347 317 315 276 40 360 22 324 323 317 297 275 345 336 341 317 306 300 295 296
343 340 339 336 335 332 331 329 329 322 275 280 324 55 45 20 358 325 320 285 288 273 305 336 294 302 310 7 30 16 1 333 314 299 301 306 301 294 292 281 265 275 282 285
344 340 332 329 330 339 341 338 357 7 308 309 117 26 2 359 351 337 274 282 261 217 254 308 270 42 359 10 54 359 348 349 302 311 325 309 313 315 320 270 228 252 263 136
340 337 336 341 349 347 345 11 43 24 326 285 108 76 23 9 355 335 292 254 244 289 350 23 43 60 27 32 13 15 345 324 324 303 299 322 336 346 355 51 114 117 107 105
344 350 356 359 353 352 356 38 2 5 1 313 347 66 26 20 18 26 41 113 171 95 65 53 51 41 16 11 21 8 351 340 343 322 328 337 333 356 17 33 46 73 87 89
350 355 7 6 13 11 26 302 323 353 349 327 0 53 15 25 37 45 54 67 69 82 80 82 66 32 53 15 20 351 349 351 360 346 345 2 11 21 26 36 46 58 68 74
346 345 351 18 22 29 50 23 327 356 24 11 25 44 1 12 48 50 55 56 57 60 60 48 54 30 45 48 23 345 351 355 3 10 13 10 19 18 30 36 43 55 59 66
346 334 331 343 16 25 18 28 26 23 51 54 37 337 324 6 354 46 54 59 59 47 60 57 47 43 50 39 357 355 358 2 10 8 18 22 26 35 36 42 39 49 46 53
345 341 349 358 13 10 354 22 39 48 48 70 26 352 350 348 332 296 65 58 61 63 59 47 47 38 42 358 355 356 358 1 355 2 13 21 27 23 29 36 34 37 37 45
1 36 43 26 344 354 16 25 25 32 38 46 32 358 327 330 331 338 140 78 67 67 39 82 50 60 26 6 1 358 359 2 4 3 9 10 14 17 21 27 32 36 38 42
20 31 32 1 8 27 36 40 31 358 44 14 357 360 334 330 325 341 25 64 58 70 20 53 37 31 359 359 4 5 5 7 9 10 11 14 13 13 16 21 25 30 36 38
4 16 31 23 27 25 52 26 13 23 10 349 346 339 333 311 322 313 10 73 49 80 33 54 45 17 351 1 3 2 4 7 8 10 10 10 10 10 10 11 17 21 24 29
28 36 48 18 6 37 31 1 355 335 346 343 333 332 334 316 345 344 10 64 59 128 45 69 48 358 352 358 355 359 3 4 6 8 9 8 8 9 9 5 7 10 11 14
49 40 32 35 33 27 355 323 312 306 306 322 322 319 335 326 349 350 54 41 22 70 75 63 16 352 345 351 350 352 355 358 359 360 360 1 1 3 5 5 3 2 1 360
56 40 45 43 354 324 322 323 321 321 314 319 319 292 326 354 35 21 11 35 51 28 43 19 348 333 338 345 344 345 347 348 350 352 352 353 352 356 358 0 358 358 357 355
56 48 33 354 342 352 354 344 336 335 330 316 291 313 37 42 12 32 15 18 28 30 351 335 331 328 329 334 338 336 336 337 338 341 342 341 342 342 344 346 348 350 351 349
51 46 18 354 320 334 339 336 336 339 337 11 348 36 13 294 54 44 8 24 1 328 319 319 323 323 322 327 329 330 331 331 331 331 333 334 332 333 337 338 341 346 342 339